TELSTAR 12V

Last updated on Thu Jul 03 2025 00:02:47 GMT+0000 (Coordinated Universal Time)

1 41036U 15068A 25183.22683745 -.00000113 00000+0 00000+0 0 9994 2 41036 0.0192 29.1537 0002389 64.5146 253.4896 1.00271826 35117
UTC large
Height (km)
Speed (km/s)
/
Latitude / Longitude
Inclination (degrees)
Orbital Period (minutes)
Azimuth
Elevation
Range (km)
Doppler Factor

Next 0 passes for location: London (51.5072 / 0.1276)

Sorry there are no passes over London.